Powrót do katalogu

COSMOS 2601

AktywnyMilitariaPO
NORAD 67675·PAYLOAD·🇷🇺 Russia

Wystrzelony Feb 5, 2026 z Plesetsk Cosmodrome

Loading…

Następne Przeloty (najbliższe 24 godziny)

TLE

ŚwieżeSource: Space-Track

Epoka: Sep 14, 2026, 08:47 UTC

1 67675U 26023B   26257.36630833  .00007883  00000-0  30084-3 0  9992
2 67675  96.6146 308.7130 0016830 172.2289 187.9216 15.26747820 33615

Śledź COSMOS 2601 w czasie rzeczywistym z AllMySat

Download on the App Store